Regional Weather Roundup
Issued by NWS

Home | Current Version | Previous Version | Text Only | Print | Product List | Glossary Off
Versions: 1 2 3 4 5 6 7 8 9 10 11 12 13 14 15 16 17 18 19 20 21 22 23 24 25 26 27 28 29 30 31 32 33 34 35 36 37 38 39 40 41 42 43 44 45 46 47 48 49 50

000
ASUS45 KABQ 311310
RWRNM
WEATHER ROUNDUP FOR NEW MEXICO
NATIONAL WEATHER SERVICE ALBUQUERQUE NM
700 AM MDT THU JUL 31 2014

NOTE: "FAIR" MEANS FEW OR NO CLOUDS BELOW 12,000 FEET AGL WITH NO
       SIGNIFICANT WEATHER OR OBSTRUCTIONS TO VISION.

      THIS PRODUCT IS RELEASED AS TWO VERSIONS.  ONE VERSION NEAR
      THE TOP OF THE HOUR CONTAINING PRELIMINARY DATA FROM ALBUQUERQUE
      AND OTHER STATIONS.  A FINAL VERSION WITH ADDITIONAL DATA IS
      ISSUED ABOUT 10 MINUTES AFTER THE HOUR.

NMZ501-503-504-510>518-311400-
NORTHWEST PLATEAU/NORTHCENTRAL MOUNTAINS

CITY           SKY/WX    TMP DP  RH WIND       PRES   REMARKS
FARMINGTON     MOCLDY    68  55  63 E9        30.20R
LOS ALAMOS     CLOUDY    55  55 100 S8        30.39F
SANTA FE       CLOUDY    59  55  87 S8        30.34S
TAOS           CLOUDY    57  52  82 W10       30.38F
ANGEL FIRE     CLOUDY    53  50  91 CALM      30.45F

$$
NMZ402-403-502-505>509-311400-
WESTCENTRAL MOUNTAINS/SOUTHWEST MOUNTAINS

CITY           SKY/WX    TMP DP  RH WIND       PRES   REMARKS
GALLUP         PTCLDY    65  55  70 CALM      30.28R
SILVER CITY    CLOUDY    66  59  77 E7        30.31S

$$
NMZ407-409-411-412-311400-
SOUTHERN DESERTS

CITY           SKY/WX    TMP DP  RH WIND       PRES   REMARKS
LORDSBURG      FAIR      73  55  53 SE15      30.18F
DEMING         CLOUDY    70  64  81 E9        30.22R
LAS CRUCES     CLOUDY    69  64  84 S3        30.23R
HOLLOMAN AFB   CLOUDY    68  68 100 SW3       30.20R
ALAMOGORDO     CLOUDY    66  66 100 CALM      30.23R
T OR C         CLOUDY    67  59  75 CALM      30.24R

$$
NMZ519>523-311400-
CENTRAL VALLEYS/CENTRAL HIGHLANDS

CITY           SKY/WX    TMP DP  RH WIND       PRES   REMARKS
ALBUQUERQUE    PTCLDY    64  56  75 E7        30.29R
DOUBLE EAGLE   MOCLDY    61  57  88 S5        30.32R
CLINES CORNERS CLOUDY    54  54 100 E5        30.38R FOG
BELEN          FAIR      63  61  94 W3        30.27R
SOCORRO        FAIR      65  60  81 SE7       30.24R

$$
NMZ524>526-539-540-311400-
SOUTHCENTRAL MOUNTAINS

CITY           SKY/WX    TMP DP  RH WIND       PRES   REMARKS
RUIDOSO        FOG       55  55 100 SE8       30.42  VSB<1/4

$$
NMZ527>531-311400-
NORTHEAST HIGHLANDS/NORTHEAST PLAINS

CITY           SKY/WX    TMP DP  RH WIND       PRES   REMARKS
LAS VEGAS      CLOUDY    56  54  93 S6        30.37S
RATON          CLOUDY    56  55  97 SW6       30.34S
CLAYTON        FOG       57  55  93 NW5       30.30S VSB 1/4

$$
NMZ532>537-311400-
EASTCENTRAL PLAINS

CITY           SKY/WX    TMP DP  RH WIND       PRES   REMARKS
TUCUMCARI      CLOUDY    64  57  78 CALM      30.26S
CANNON AFB     PTSUNNY   61  55  82 N7        30.27S
CLOVIS AIRPORT NOT AVBL

$$
NMZ028-029-538-311400-
SOUTHEAST PLAINS

CITY           SKY/WX    TMP DP  RH WIND       PRES   REMARKS
ROSWELL        CLOUDY    68  61  78 CALM      30.26R
ARTESIA        LGT RAIN  64  64 100 N7        30.25S
CARLSBAD       CLOUDY    67  63  87 N14       30.23
HOBBS          MOCLDY    64  57  77 N13       30.23R


$$



USA.gov is the U.S. government's official web portal to all federal, state and local government web resources and services.